User: anonymous   Login
Location: Asheville, NC
(35.6000°N, 82.5500°W)
Time: 09:31:11
(UTC-05:00)
Language:

CUBEBUG 2 - Orbit

View from above orbital plane
View from above orbital plane
View from above satellite
View from above satellite

Ground track
Ground track

The orbit data is extracted from the following two-line orbital elements,

1 39440U 13066AA  19051.91450521 +.00000175 +00000-0 +31106-4 0  9997
2 39440 097.6004 057.3228 0081786 107.3173 253.7005 14.75794939281402
Epoch (UTC): 20 February 2019 21:56:53
Eccentricity: 0.0081786
inclination: 97.6004°
perigee height: 585 km
apogee height: 700 km
right ascension of ascending node: 57.3228°
argument of perigee: 107.3173°
revolutions per day: 14.75794939
mean anomaly at epoch: 253.7005°
orbit number at epoch: 28140

The dashed part of the orbit path shows where the satellite is in the earth's shadow,  

DLR